OMD5PM LBSF-LGAV

Flight info

Callsign OMD5PM
Flight time N/A
Altitude 35000
Route NAPET T214 SIN DCT MAKED DCT SIGFO UM749 ROPOX
Aircraft A320/M-SDE3FGHIRWY/LB1

Departure

Time N/A
Airport Sofia Airport (LBSF)

Arrival

Time 2026-05-05 17:07
Airport Athens Eleftherios Venizelos International Airport (LGAV)
Time Latitude Longitude Altitude Speed Heading
2026-05-05 16:24 42.01482 22.72695 28081 ft 476 kts 193°
2026-05-05 16:25 41.98209 22.71917 28459 ft 478 kts 194°
2026-05-05 16:25 41.91681 22.70213 29143 ft 483 kts 195°
2026-05-05 16:25 41.88371 22.69355 29492 ft 485 kts 195°
2026-05-05 16:26 41.81742 22.67741 30394 ft 483 kts 194°
2026-05-05 16:26 41.75133 22.66219 31305 ft 481 kts 195°
2026-05-05 16:27 41.71836 22.65459 31750 ft 480 kts 195°
2026-05-05 16:27 41.68589 22.64703 32186 ft 479 kts 195°
2026-05-05 16:27 41.65306 22.63933 32624 ft 478 kts 196°
2026-05-05 16:27 41.62030 22.63161 33057 ft 477 kts 196°
2026-05-05 16:28 41.58767 22.62388 33482 ft 476 kts 197°
2026-05-05 16:28 41.55502 22.61614 33901 ft 476 kts 197°
2026-05-05 16:28 41.52243 22.60845 34318 ft 475 kts 197°
2026-05-05 16:28 41.48998 22.60084 34734 ft 474 kts 197°
2026-05-05 16:29 41.45745 22.59319 34972 ft 474 kts 196°
2026-05-05 16:29 41.42499 22.58556 35026 ft 473 kts 196°
2026-05-05 16:29 41.36073 22.57055 35015 ft 472 kts 196°
2026-05-05 16:30 41.29600 22.55548 35019 ft 472 kts 196°
2026-05-05 16:30 41.26317 22.55254 35036 ft 477 kts 181°
2026-05-05 16:30 41.23070 22.56037 35023 ft 486 kts 165°
2026-05-05 16:31 41.16712 22.59368 35012 ft 495 kts 160°
2026-05-05 16:31 41.10213 22.62350 35014 ft 493 kts 166°
2026-05-05 16:32 41.03648 22.65039 35018 ft 493 kts 166°
2026-05-05 16:32 40.97112 22.67655 35020 ft 491 kts 166°
2026-05-05 16:33 40.90550 22.70270 35012 ft 493 kts 166°
2026-05-05 16:33 40.84024 22.72882 35014 ft 493 kts 166°
2026-05-05 16:34 40.77455 22.75515 35012 ft 493 kts 166°
2026-05-05 16:34 40.70891 22.78131 35010 ft 493 kts 166°
2026-05-05 16:35 40.64309 22.80755 35006 ft 494 kts 166°
2026-05-05 16:35 40.57721 22.83372 35002 ft 495 kts 166°
2026-05-05 16:36 40.51174 22.85967 35006 ft 495 kts 166°
2026-05-05 16:36 40.44576 22.88582 35009 ft 495 kts 166°
2026-05-05 16:37 40.37977 22.91185 35011 ft 495 kts 166°
2026-05-05 16:37 40.31422 22.93773 35010 ft 495 kts 166°
2026-05-05 16:38 40.24825 22.96369 35009 ft 495 kts 166°
2026-05-05 16:38 40.18228 22.98970 35011 ft 495 kts 166°
2026-05-05 16:39 40.11622 23.01560 35014 ft 495 kts 166°
2026-05-05 16:39 40.05067 23.04123 35016 ft 495 kts 166°
2026-05-05 16:40 39.98461 23.06704 35017 ft 495 kts 166°
2026-05-05 16:40 39.91856 23.09277 35014 ft 496 kts 166°
2026-05-05 16:41 39.85249 23.11848 35017 ft 496 kts 166°
2026-05-05 16:41 39.78642 23.14413 35019 ft 496 kts 166°
2026-05-05 16:42 39.72069 23.16953 35021 ft 496 kts 166°
2026-05-05 16:42 39.65461 23.19511 35023 ft 496 kts 166°
2026-05-05 16:43 39.58854 23.22067 35024 ft 496 kts 166°
2026-05-05 16:43 39.52243 23.24609 35025 ft 495 kts 166°
2026-05-05 16:44 39.45669 23.27128 35026 ft 495 kts 166°
2026-05-05 16:44 39.39057 23.29666 34558 ft 494 kts 166°
2026-05-05 16:45 39.35769 23.30930 34068 ft 493 kts 166°
2026-05-05 16:45 39.32484 23.32190 33569 ft 491 kts 166°
2026-05-05 16:45 39.29264 23.33424 33078 ft 487 kts 166°
2026-05-05 16:45 39.26025 23.34663 32585 ft 490 kts 166°
2026-05-05 16:46 39.22724 23.35918 32080 ft 496 kts 166°
2026-05-05 16:46 39.19412 23.37176 31578 ft 498 kts 166°
2026-05-05 16:46 39.16086 23.38443 31078 ft 498 kts 166°
2026-05-05 16:46 39.12756 23.39715 30578 ft 499 kts 166°
2026-05-05 16:47 39.09467 23.40968 30083 ft 497 kts 166°
2026-05-05 16:47 39.06198 23.42210 29588 ft 486 kts 166°
2026-05-05 16:47 39.02978 23.43430 29095 ft 476 kts 166°
2026-05-05 16:47 38.99819 23.44627 28601 ft 467 kts 166°
2026-05-05 16:48 38.96729 23.45797 28109 ft 460 kts 166°
2026-05-05 16:48 38.93683 23.46948 27614 ft 452 kts 166°
2026-05-05 16:48 38.90688 23.48080 27120 ft 446 kts 166°
2026-05-05 16:48 38.87728 23.49202 26624 ft 440 kts 165°
2026-05-05 16:49 38.84856 23.50307 26135 ft 435 kts 165°
2026-05-05 16:49 38.81966 23.51434 25637 ft 431 kts 165°
2026-05-05 16:49 38.79111 23.52556 25140 ft 427 kts 165°
2026-05-05 16:49 38.76290 23.53664 24643 ft 423 kts 164°
2026-05-05 16:50 38.73495 23.54769 24147 ft 419 kts 164°
2026-05-05 16:50 38.70721 23.55863 23649 ft 415 kts 164°
2026-05-05 16:50 38.67906 23.56810 23162 ft 428 kts 174°
2026-05-05 16:50 38.64905 23.57147 22647 ft 444 kts 178°
2026-05-05 16:51 38.61835 23.57413 22137 ft 438 kts 179°
2026-05-05 16:51 38.58826 23.57659 21642 ft 428 kts 179°
2026-05-05 16:51 38.55879 23.57893 21147 ft 420 kts 179°
2026-05-05 16:51 38.53003 23.58116 20877 ft 406 kts 179°
2026-05-05 16:52 38.50231 23.58331 20600 ft 394 kts 179°
2026-05-05 16:52 38.47523 23.58545 19840 ft 397 kts 179°
2026-05-05 16:52 38.44743 23.58766 18919 ft 403 kts 178°
2026-05-05 16:52 38.41919 23.58992 17930 ft 409 kts 178°
2026-05-05 16:53 38.39054 23.59220 16955 ft 414 kts 178°
2026-05-05 16:53 38.36183 23.59450 16183 ft 411 kts 178°
2026-05-05 16:53 38.33352 23.59679 15681 ft 402 kts 177°
2026-05-05 16:53 38.30630 23.59899 15167 ft 393 kts 177°
2026-05-05 16:54 38.27910 23.60114 14511 ft 390 kts 177°
2026-05-05 16:54 38.25219 23.60324 13914 ft 384 kts 177°
2026-05-05 16:54 38.22571 23.60531 13315 ft 379 kts 177°
2026-05-05 16:54 38.19946 23.60738 12691 ft 376 kts 176°
2026-05-05 16:55 38.17348 23.60945 12076 ft 372 kts 176°
2026-05-05 16:55 38.14799 23.61150 11740 ft 360 kts 176°
2026-05-05 16:55 38.12351 23.61344 11467 ft 348 kts 176°
2026-05-05 16:55 38.09965 23.61534 10861 ft 348 kts 176°
2026-05-05 16:56 38.07586 23.61720 10646 ft 335 kts 176°
2026-05-05 16:56 38.05315 23.61899 10521 ft 320 kts 176°
2026-05-05 16:56 38.03132 23.62075 10395 ft 308 kts 176°
2026-05-05 16:56 38.01021 23.62246 10170 ft 301 kts 177°
2026-05-05 16:57 37.98946 23.62409 9830 ft 298 kts 177°
2026-05-05 16:57 37.96881 23.62570 9481 ft 296 kts 177°
2026-05-05 16:57 37.94840 23.62731 9161 ft 293 kts 177°
2026-05-05 16:57 37.92864 23.62888 9017 ft 283 kts 177°
2026-05-05 16:58 37.90951 23.63040 8877 ft 268 kts 177°
2026-05-05 16:58 37.89128 23.63183 8588 ft 260 kts 177°
2026-05-05 16:58 37.87334 23.63324 8150 ft 257 kts 177°
2026-05-05 16:58 37.85571 23.63464 7821 ft 248 kts 177°
2026-05-05 16:59 37.83883 23.63600 7549 ft 240 kts 177°
2026-05-05 16:59 37.82229 23.63734 7164 ft 237 kts 177°
2026-05-05 16:59 37.80589 23.63864 6761 ft 236 kts 177°
2026-05-05 16:59 37.78979 23.63992 6370 ft 234 kts 176°
2026-05-05 17:00 37.77460 23.64619 5979 ft 232 kts 143°
2026-05-05 17:00 37.76357 23.66046 5763 ft 222 kts 128°
2026-05-05 17:00 37.75563 23.67645 5640 ft 209 kts 113°
2026-05-05 17:00 37.75041 23.69284 5501 ft 195 kts 110°
2026-05-05 17:01 37.74582 23.70879 5212 ft 192 kts 109°
2026-05-05 17:01 37.74147 23.72463 4876 ft 190 kts 105°
2026-05-05 17:01 37.74165 23.74100 4631 ft 189 kts 71°
2026-05-05 17:01 37.74877 23.75469 4482 ft 189 kts 39°
2026-05-05 17:02 37.75925 23.76476 4252 ft 189 kts 36°
2026-05-05 17:02 37.76974 23.77458 4010 ft 187 kts 36°
2026-05-05 17:02 37.78015 23.78442 3764 ft 186 kts 37°
2026-05-05 17:02 37.79033 23.79407 3522 ft 185 kts 37°
2026-05-05 17:03 37.80061 23.80382 3277 ft 184 kts 37°
2026-05-05 17:03 37.81085 23.81355 3032 ft 184 kts 38°
2026-05-05 17:03 37.82106 23.82324 2789 ft 183 kts 38°
2026-05-05 17:03 37.83117 23.83285 2544 ft 178 kts 37°
2026-05-05 17:04 37.84081 23.84200 2323 ft 168 kts 37°
2026-05-05 17:04 37.84977 23.85051 2102 ft 153 kts 38°
2026-05-05 17:04 37.85790 23.85824 1894 ft 141 kts 38°
2026-05-05 17:04 37.86591 23.86586 1723 ft 146 kts 38°
2026-05-05 17:05 37.87401 23.87357 1526 ft 146 kts 37°
2026-05-05 17:05 37.88201 23.88117 1335 ft 145 kts 37°
2026-05-05 17:05 37.88979 23.88859 1112 ft 136 kts 37°
2026-05-05 17:05 37.89736 23.89584 967 ft 137 kts 37°
2026-05-05 17:06 37.90498 23.90308 776 ft 136 kts 37°
2026-05-05 17:06 37.91257 23.91029 591 ft 136 kts 37°
2026-05-05 17:06 37.92007 23.91753 416 ft 135 kts 37°
2026-05-05 17:06 37.92760 23.92471 328 ft 134 kts 36°
2026-05-05 17:07 37.93413 23.93094 319 ft 91 kts 36°
2026-05-05 17:07 37.93770 23.93434 319 ft 44 kts 40°
2026-05-05 17:07 37.93900 23.93611 319 ft 22 kts 64°
2026-05-05 17:07 37.93943 23.93736 319 ft 9 kts 69°
2026-05-05 17:08 37.93922 23.93813 319 ft 11 kts 156°
2026-05-05 17:08 37.93861 23.93792 319 ft 8 kts 215°
2026-05-05 17:08 37.93811 23.93748 319 ft 9 kts 215°
2026-05-05 17:08 37.93754 23.93695 319 ft 11 kts 217°
2026-05-05 17:09 37.93686 23.93631 319 ft 13 kts 217°
2026-05-05 17:09 37.93611 23.93559 319 ft 14 kts 217°
2026-05-05 17:09 37.93530 23.93483 319 ft 14 kts 217°
2026-05-05 17:09 37.93469 23.93436 319 ft 10 kts 193°
2026-05-05 17:10 37.93408 23.93478 319 ft 11 kts 130°
2026-05-05 17:10 37.93357 23.93563 319 ft 13 kts 126°
2026-05-05 17:10 37.93302 23.93658 319 ft 14 kts 128°
2026-05-05 17:10 37.93239 23.93762 319 ft 16 kts 127°
2026-05-05 17:11 37.93171 23.93877 319 ft 17 kts 127°
2026-05-05 17:11 37.93104 23.93986 319 ft 8 kts 128°
2026-05-05 17:11 37.93070 23.94041 319 ft 10 kts 127°
2026-05-05 17:11 37.93013 23.94138 319 ft 17 kts 127°
2026-05-05 17:12 37.92930 23.94278 319 ft 21 kts 128°
2026-05-05 17:12 37.92882 23.94381 319 ft 12 kts 89°
2026-05-05 17:12 37.92937 23.94461 319 ft 13 kts 36°
2026-05-05 17:12 37.93016 23.94534 319 ft 15 kts 37°
2026-05-05 17:13 37.93101 23.94616 319 ft 16 kts 36°
2026-05-05 17:13 37.93196 23.94704 319 ft 18 kts 37°
2026-05-05 17:13 37.93294 23.94798 319 ft 15 kts 36°
2026-05-05 17:13 37.93366 23.94866 319 ft 11 kts 37°
2026-05-05 17:14 37.93433 23.94931 319 ft 13 kts 37°
2026-05-05 17:14 37.93511 23.95006 319 ft 15 kts 36°
2026-05-05 17:14 37.93588 23.95046 319 ft 10 kts 326°
2026-05-05 17:14 37.93637 23.95011 319 ft 8 kts
2026-05-05 17:15 37.93682 23.95048 319 ft 7 kts 38°
2026-05-05 17:15 37.93723 23.95088 319 ft 8 kts 37°
2026-05-05 17:15 37.93767 23.95130 319 ft 6 kts 36°
2026-05-05 17:15 37.93803 23.95115 319 ft 6 kts 308°
2026-05-05 17:16 37.93830 23.95069 319 ft 6 kts 308°